Time,TemperatureF,DewpointF,PressureIn,WindDirection,WindDirectionDegrees,WindSpeedMPH,WindSpeedGustMPH,Humidity,HourlyPrecipIn,Conditions,Clouds,dailyrainin,SoftwareType,DateUTC
2013-01-01 00:03:00,32.0,24.0,29.44,WSW,246,1.0,-999.0,71,-99.99,,,-99.99,,2013-01-01 05:03:00,
2013-01-01 00:12:00,32.0,24.0,29.44,WSW,246,1.0,-999.0,71,-99.99,,,-99.99,,2013-01-01 05:12:00,
2013-01-01 00:22:00,32.0,24.0,29.44,WSW,246,1.0,-999.0,71,-99.99,,,-99.99,,2013-01-01 05:22:00,
2013-01-01 00:33:00,32.0,24.0,29.42,SSW,213,1.0,-999.0,73,-99.99,,,-99.99,,2013-01-01 05:33:00,
2013-01-01 00:42:00,32.0,24.0,29.42,SSW,213,1.0,-999.0,73,-99.99,,,-99.99,,2013-01-01 05:42:00,
2013-01-01 00:53:00,32.0,24.0,29.43,WSW,248,1.0,-999.0,73,-99.99,,,-99.99,,2013-01-01 05:53:00,
2013-01-01 01:02:00,32.0,25.0,29.42,SSW,209,1.0,-999.0,74,-99.99,,,-99.99,,2013-01-01 06:02:00,
2013-01-01 01:12:00,32.0,25.0,29.42,SSW,209,1.0,-999.0,74,-99.99,,,-99.99,,2013-01-01 06:12:00,
2013-01-01 01:22:00,32.0,25.0,29.42,SSW,206,1.0,-999.0,75,-99.99,,,-99.99,,2013-01-01 06:22:00,
2013-01-01 01:32:00,32.0,25.0,29.43,WSW,242,1.0,-999.0,75,-99.99,,,-99.99,,2013-01-01 06:32:00,
2013-01-01 01:42:00,32.0,25.0,29.43,WSW,242,1.0,-999.0,75,-99.99,,,-99.99,,2013-01-01 06:42:00,
2013-01-01 01:52:00,33.0,26.0,29.42,SSW,208,1.0,-999.0,75,-99.99,,,-99.99,,2013-01-01 06:52:00,
2013-01-01 02:02:00,33.0,26.0,29.43,SW,216,2.0,-999.0,75,-99.99,,,-99.99,,2013-01-01 07:02:00,
2013-01-01 02:12:00,33.0,26.0,29.43,WNW,284,2.0,-999.0,76,-99.99,,,-99.99,,2013-01-01 07:12:00,
2013-01-01 02:22:00,33.0,26.0,29.43,WNW,284,2.0,-999.0,76,-99.99,,,-99.99,,2013-01-01 07:22:00,
2013-01-01 02:32:00,33.0,26.0,29.42,WNW,294,2.0,-999.0,76,-99.99,,,-99.99,,2013-01-01 07:32:00,
2013-01-01 02:42:00,33.0,26.0,29.42,WNW,294,2.0,-999.0,76,-99.99,,,-99.99,,2013-01-01 07:42:00,
2013-01-01 02:53:00,33.0,27.0,29.41,SSW,211,1.0,-999.0,77,-99.99,,,-99.99,,2013-01-01 07:53:00,
2013-01-01 03:02:00,33.0,27.0,29.41,WNW,297,1.0,-999.0,78,-99.99,,,-99.99,,2013-01-01 08:02:00,
2013-01-01 03:12:00,33.0,27.0,29.41,WNW,297,1.0,-999.0,78,-99.99,,,-99.99,,2013-01-01 08:12:00,
2013-01-01 03:22:00,33.0,27.0,29.41,WNW,296,2.0,-999.0,78,-99.99,,,-99.99,,2013-01-01 08:22:00,
2013-01-01 03:32:00,33.0,27.0,29.42,WSW,244,1.0,-999.0,78,-99.99,,,-99.99,,2013-01-01 08:32:00,
2013-01-01 03:42:00,33.0,27.0,29.43,West,274,1.0,-999.0,78,-99.99,,,-99.99,,2013-01-01 08:42:00,
2013-01-01 03:53:00,33.0,27.0,29.43,West,274,1.0,-999.0,78,-99.99,,,-99.99,,2013-01-01 08:53:00,
2013-01-01 04:02:00,34.0,28.0,29.42,WNW,289,2.0,-999.0,78,-99.99,,,-99.99,,2013-01-01 09:02:00,
2013-01-01 04:12:00,34.0,28.0,29.42,WNW,289,2.0,-999.0,78,-99.99,,,-99.99,,2013-01-01 09:12:00,
2013-01-01 04:22:00,34.0,28.0,29.42,West,262,1.0,-999.0,78,-99.99,,,-99.99,,2013-01-01 09:22:00,
2013-01-01 04:32:00,34.0,28.0,29.42,WNW,301,2.0,-999.0,77,-99.99,,,-99.99,,2013-01-01 09:32:00,
2013-01-01 04:42:00,34.0,28.0,29.42,WNW,301,2.0,-999.0,77,-99.99,,,-99.99,,2013-01-01 09:42:00,
2013-01-01 04:52:00,34.0,28.0,29.43,NW,311,1.0,-999.0,78,-99.99,,,-99.99,,2013-01-01 09:52:00,
2013-01-01 05:02:00,34.0,28.0,29.42,WNW,285,1.0,-999.0,77,-99.99,,,-99.99,,2013-01-01 10:02:00,
2013-01-01 05:12:00,34.0,28.0,29.42,West,276,1.0,-999.0,78,-99.99,,,-99.99,,2013-01-01 10:12:00,
2013-01-01 05:22:00,34.0,28.0,29.42,West,276,1.0,-999.0,78,-99.99,,,-99.99,,2013-01-01 10:22:00,
2013-01-01 05:33:00,34.0,28.0,29.42,WSW,248,2.0,-999.0,78,-99.99,,,-99.99,,2013-01-01 10:33:00,
2013-01-01 05:42:00,34.0,28.0,29.42,WSW,248,2.0,-999.0,78,-99.99,,,-99.99,,2013-01-01 10:42:00,
2013-01-01 05:53:00,34.0,28.0,29.41,WSW,251,1.0,-999.0,78,-99.99,,,-99.99,,2013-01-01 10:53:00,
2013-01-01 06:02:00,34.0,28.0,29.42,West,264,1.0,-999.0,78,-99.99,,,-99.99,,2013-01-01 11:02:00,
2013-01-01 06:12:00,34.0,28.0,29.42,West,264,1.0,-999.0,78,-99.99,,,-99.99,,2013-01-01 11:12:00,
2013-01-01 06:23:00,34.0,28.0,29.42,WSW,241,1.0,-999.0,79,-99.99,,,-99.99,,2013-01-01 11:23:00,
2013-01-01 06:33:00,34.0,28.0,29.43,NW,316,1.0,-999.0,79,-99.99,,,-99.99,,2013-01-01 11:33:00,
2013-01-01 06:43:00,34.0,28.0,29.43,NW,316,1.0,-999.0,79,-99.99,,,-99.99,,2013-01-01 11:43:00,
2013-01-01 06:53:00,34.0,28.0,29.43,NW,308,1.0,-999.0,78,-99.99,,,-99.99,,2013-01-01 11:53:00,
2013-01-01 07:03:00,34.0,28.0,29.43,SW,234,0.0,-999.0,79,-99.99,,,-99.99,,2013-01-01 12:03:00,
2013-01-01 07:12:00,34.0,28.0,29.43,SW,234,0.0,-999.0,79,-99.99,,,-99.99,,2013-01-01 12:12:00,
2013-01-01 07:22:00,34.0,28.0,29.44,WSW,238,0.0,-999.0,79,-99.99,,,-99.99,,2013-01-01 12:22:00,
2013-01-01 07:33:00,34.0,28.0,29.44,NW,318,1.0,-999.0,77,-99.99,,,-99.99,,2013-01-01 12:33:00,
2013-01-01 07:43:00,34.0,28.0,29.44,NW,318,1.0,-999.0,77,-99.99,,,-99.99,,2013-01-01 12:43:00,
2013-01-01 07:53:00,34.0,27.0,29.44,NW,318,0.0,-999.0,75,-99.99,,,-99.99,,2013-01-01 12:53:00,
2013-01-01 08:03:00,34.0,27.0,29.43,NW,304,1.0,-999.0,76,-99.99,,,-99.99,,2013-01-01 13:03:00,
2013-01-01 08:12:00,34.0,27.0,29.43,NW,304,1.0,-999.0,76,-99.99,,,-99.99,,2013-01-01 13:12:00,
2013-01-01 08:22:00,33.0,27.0,29.44,NW,304,0.0,-999.0,77,-99.99,,,-99.99,,2013-01-01 13:22:00,
2013-01-01 08:33:00,33.0,27.0,29.44,NW,304,0.0,-999.0,77,-99.99,,,-99.99,,2013-01-01 13:33:00,
2013-01-01 08:43:00,33.0,27.0,29.44,NW,304,0.0,-999.0,77,-99.99,,,-99.99,,2013-01-01 13:43:00,
2013-01-01 08:53:00,33.0,27.0,29.45,NW,304,0.0,-999.0,77,-99.99,,,-99.99,,2013-01-01 13:53:00,
2013-01-01 09:02:00,33.0,26.0,29.45,NW,304,1.0,-999.0,75,-99.99,,,-99.99,,2013-01-01 14:02:00,
2013-01-01 09:12:00,33.0,26.0,29.45,NW,304,1.0,-999.0,75,-99.99,,,-99.99,,2013-01-01 14:12:00,
2013-01-01 09:22:00,34.0,26.0,29.45,South,185,1.0,-999.0,73,-99.99,,,-99.99,,2013-01-01 14:22:00,
2013-01-01 09:32:00,34.0,25.0,29.45,WNW,285,1.0,-999.0,70,-99.99,,,-99.99,,2013-01-01 14:32:00,
2013-01-01 09:42:00,34.0,25.0,29.45,WNW,285,1.0,-999.0,70,-99.99,,,-99.99,,2013-01-01 14:42:00,
2013-01-01 09:53:00,34.0,25.0,29.46,WNW,286,2.0,-999.0,69,-99.99,,,-99.99,,2013-01-01 14:53:00,
2013-01-01 10:03:00,34.0,25.0,29.46,WNW,296,2.0,-999.0,68,-99.99,,,-99.99,,2013-01-01 15:03:00,
2013-01-01 10:12:00,34.0,25.0,29.46,WNW,296,2.0,-999.0,68,-99.99,,,-99.99,,2013-01-01 15:12:00,
2013-01-01 10:22:00,35.0,24.0,29.45,WNW,285,4.0,-999.0,65,-99.99,,,-99.99,,2013-01-01 15:22:00,
2013-01-01 10:33:00,35.0,24.0,29.46,NW,309,5.0,-999.0,63,-99.99,,,-99.99,,2013-01-01 15:33:00,
2013-01-01 10:42:00,35.0,24.0,29.46,NW,309,5.0,-999.0,63,-99.99,,,-99.99,,2013-01-01 15:42:00,
2013-01-01 10:53:00,35.0,23.0,29.46,WNW,288,6.0,-999.0,61,-99.99,,,-99.99,,2013-01-01 15:53:00,
2013-01-01 11:02:00,35.0,22.0,29.46,WNW,286,5.0,-999.0,59,-99.99,,,-99.99,,2013-01-01 16:02:00,
2013-01-01 11:12:00,35.0,22.0,29.46,WNW,286,5.0,-999.0,59,-99.99,,,-99.99,,2013-01-01 16:12:00,
2013-01-01 11:22:00,35.0,21.0,29.47,NNW,331,5.0,-999.0,57,-99.99,,,-99.99,,2013-01-01 16:22:00,
2013-01-01 11:33:00,35.0,21.0,29.47,NNW,331,5.0,-999.0,57,-99.99,,,-99.99,,2013-01-01 16:33:00,
2013-01-01 11:43:00,35.0,21.0,29.47,NNW,331,5.0,-999.0,57,-99.99,,,-99.99,,2013-01-01 16:43:00,
2013-01-01 11:53:00,35.0,21.0,29.45,NW,308,4.0,-999.0,57,-99.99,,,-99.99,,2013-01-01 16:53:00,
2013-01-01 12:02:00,35.0,21.0,29.44,WNW,300,4.0,-999.0,57,-99.99,,,-99.99,,2013-01-01 17:02:00,
2013-01-01 12:12:00,35.0,21.0,29.44,WNW,300,4.0,-999.0,57,-99.99,,,-99.99,,2013-01-01 17:12:00,
2013-01-01 12:22:00,35.0,20.0,29.43,NW,305,5.0,-999.0,55,-99.99,,,-99.99,,2013-01-01 17:22:00,
2013-01-01 12:33:00,34.0,20.0,29.43,WNW,301,4.0,-999.0,55,-99.99,,,-99.99,,2013-01-01 17:33:00,
2013-01-01 12:43:00,34.0,20.0,29.43,WNW,301,4.0,-999.0,55,-99.99,,,-99.99,,2013-01-01 17:43:00,
2013-01-01 12:53:00,34.0,20.0,29.43,WNW,301,4.0,-999.0,55,-99.99,,,-99.99,,2013-01-01 17:53:00,
2013-01-01 13:03:00,34.0,20.0,29.43,NNW,327,4.0,-999.0,56,-99.99,,,-99.99,,2013-01-01 18:03:00,
2013-01-01 13:13:00,34.0,20.0,29.43,NNW,327,4.0,-999.0,56,-99.99,,,-99.99,,2013-01-01 18:13:00,
2013-01-01 13:23:00,34.0,20.0,29.43,WNW,302,4.0,-999.0,56,-99.99,,,-99.99,,2013-01-01 18:23:00,
2013-01-01 13:33:00,34.0,19.0,29.43,WNW,292,6.0,-999.0,53,-99.99,,,-99.99,,2013-01-01 18:33:00,
2013-01-01 13:43:00,34.0,19.0,29.43,WNW,292,6.0,-999.0,53,-99.99,,,-99.99,,2013-01-01 18:43:00,
2013-01-01 13:53:00,34.0,19.0,29.43,WNW,292,6.0,-999.0,53,-99.99,,,-99.99,,2013-01-01 18:53:00,
2013-01-01 14:02:00,34.0,20.0,29.42,NW,315,5.0,-999.0,55,-99.99,,,-99.99,,2013-01-01 19:02:00,
2013-01-01 14:12:00,34.0,20.0,29.42,NW,315,5.0,-999.0,55,-99.99,,,-99.99,,2013-01-01 19:12:00,
2013-01-01 14:22:00,33.0,18.0,29.43,WNW,294,4.0,-999.0,54,-99.99,,,-99.99,,2013-01-01 19:22:00,
2013-01-01 14:33:00,33.0,18.0,29.41,WNW,297,4.0,-999.0,54,-99.99,,,-99.99,,2013-01-01 19:33:00,
2013-01-01 14:42:00,33.0,18.0,29.41,WNW,297,4.0,-999.0,54,-99.99,,,-99.99,,2013-01-01 19:42:00,
2013-01-01 14:53:00,33.0,18.0,29.42,WNW,298,3.0,-999.0,53,-99.99,,,-99.99,,2013-01-01 19:53:00,
2013-01-01 15:02:00,33.0,19.0,29.42,NW,320,2.0,-999.0,57,-99.99,,,-99.99,,2013-01-01 20:02:00,
2013-01-01 15:13:00,33.0,19.0,29.42,NW,320,2.0,-999.0,57,-99.99,,,-99.99,,2013-01-01 20:13:00,
2013-01-01 15:23:00,32.0,22.0,29.44,NNE,13,2.0,-999.0,67,-99.99,,,-99.99,,2013-01-01 20:23:00,
2013-01-01 15:32:00,31.0,22.0,29.44,East,83,1.0,-999.0,68,-99.99,,,-99.99,,2013-01-01 20:32:00,
2013-01-01 15:42:00,31.0,22.0,29.44,East,83,1.0,-999.0,68,-99.99,,,-99.99,,2013-01-01 20:42:00,
2013-01-01 15:53:00,31.0,21.0,29.45,NNW,348,1.0,-999.0,67,-99.99,,,-99.99,,2013-01-01 20:53:00,
2013-01-01 16:03:00,30.0,20.0,29.45,NNW,329,1.0,-999.0,66,-99.99,,,-99.99,,2013-01-01 21:03:00,
2013-01-01 16:13:00,30.0,20.0,29.46,NNW,330,0.0,-999.0,67,-99.99,,,-99.99,,2013-01-01 21:13:00,
2013-01-01 16:22:00,30.0,20.0,29.46,NNW,330,0.0,-999.0,67,-99.99,,,-99.99,,2013-01-01 21:22:00,
2013-01-01 16:33:00,30.0,20.0,29.46,NNW,344,0.0,-999.0,66,-99.99,,,-99.99,,2013-01-01 21:33:00,
2013-01-01 16:42:00,30.0,20.0,29.46,NNW,344,0.0,-999.0,66,-99.99,,,-99.99,,2013-01-01 21:42:00,
2013-01-01 16:53:00,29.0,19.0,29.47,NNW,344,0.0,-999.0,66,-99.99,,,-99.99,,2013-01-01 21:53:00,
2013-01-01 17:03:00,29.0,20.0,29.48,NNW,344,0.0,-999.0,68,-99.99,,,-99.99,,2013-01-01 22:03:00,
2013-01-01 17:12:00,29.0,20.0,29.48,NNW,344,0.0,-999.0,68,-99.99,,,-99.99,,2013-01-01 22:12:00,
2013-01-01 17:22:00,28.0,19.0,29.48,NNW,344,0.0,-999.0,69,-99.99,,,-99.99,,2013-01-01 22:22:00,
2013-01-01 17:33:00,28.0,18.0,29.49,NW,306,1.0,-999.0,67,-99.99,,,-99.99,,2013-01-01 22:33:00,
2013-01-01 17:42:00,28.0,18.0,29.49,NW,306,1.0,-999.0,67,-99.99,,,-99.99,,2013-01-01 22:42:00,
2013-01-01 17:53:00,28.0,18.0,29.49,WNW,293,2.0,-999.0,65,-99.99,,,-99.99,,2013-01-01 22:53:00,
2013-01-01 18:03:00,28.0,17.0,29.51,NW,321,3.0,-999.0,62,-99.99,,,-99.99,,2013-01-01 23:03:00,
2013-01-01 18:12:00,28.0,17.0,29.51,NW,321,3.0,-999.0,62,-99.99,,,-99.99,,2013-01-01 23:12:00,
2013-01-01 18:22:00,27.0,16.0,29.51,NW,310,1.0,-999.0,63,-99.99,,,-99.99,,2013-01-01 23:22:00,
2013-01-01 18:32:00,27.0,15.0,29.53,North,360,1.0,-999.0,61,-99.99,,,-99.99,,2013-01-01 23:32:00,
2013-01-01 18:42:00,27.0,15.0,29.53,North,360,1.0,-999.0,61,-99.99,,,-99.99,,2013-01-01 23:42:00,
2013-01-01 18:53:00,26.0,14.0,29.53,NW,305,1.0,-999.0,61,-99.99,,,-99.99,,2013-01-01 23:53:00,
2013-01-01 19:03:00,26.0,14.0,29.52,WNW,288,1.0,-999.0,60,-99.99,,,-99.99,,2013-01-02 00:03:00,
2013-01-01 19:12:00,26.0,14.0,29.52,WNW,288,1.0,-999.0,60,-99.99,,,-99.99,,2013-01-02 00:12:00,
2013-01-01 19:22:00,26.0,14.0,29.53,WNW,283,1.0,-999.0,60,-99.99,,,-99.99,,2013-01-02 00:22:00,
2013-01-01 19:32:00,25.0,14.0,29.54,WNW,295,2.0,-999.0,63,-99.99,,,-99.99,,2013-01-02 00:32:00,
2013-01-01 19:42:00,25.0,14.0,29.54,WNW,295,2.0,-999.0,63,-99.99,,,-99.99,,2013-01-02 00:42:00,
2013-01-01 19:53:00,25.0,14.0,29.55,NW,306,2.0,-999.0,62,-99.99,,,-99.99,,2013-01-02 00:53:00,
2013-01-01 20:02:00,25.0,14.0,29.54,NNW,347,0.0,-999.0,62,-99.99,,,-99.99,,2013-01-02 01:02:00,
2013-01-01 20:12:00,25.0,14.0,29.54,NNW,347,0.0,-999.0,62,-99.99,,,-99.99,,2013-01-02 01:12:00,
2013-01-01 20:22:00,24.0,13.0,29.54,NW,325,1.0,-999.0,63,-99.99,,,-99.99,,2013-01-02 01:22:00,
2013-01-01 20:32:00,24.0,13.0,29.54,NW,321,1.0,-999.0,63,-99.99,,,-99.99,,2013-01-02 01:32:00,
2013-01-01 20:42:00,24.0,13.0,29.54,NW,321,1.0,-999.0,63,-99.99,,,-99.99,,2013-01-02 01:42:00,
2013-01-01 20:52:00,23.0,12.0,29.54,NNW,330,3.0,-999.0,61,-99.99,,,-99.99,,2013-01-02 01:52:00,
2013-01-01 21:02:00,23.0,10.0,29.54,NW,320,2.0,-999.0,58,-99.99,,,-99.99,,2013-01-02 02:02:00,
2013-01-01 21:12:00,23.0,10.0,29.54,NW,320,2.0,-999.0,58,-99.99,,,-99.99,,2013-01-02 02:12:00,
2013-01-01 21:22:00,23.0,9.0,29.55,WNW,284,3.0,-999.0,54,-99.99,,,-99.99,,2013-01-02 02:22:00,
2013-01-01 21:32:00,22.0,7.0,29.56,NNW,327,2.0,-999.0,52,-99.99,,,-99.99,,2013-01-02 02:32:00,
2013-01-01 21:42:00,22.0,7.0,29.56,NNW,327,2.0,-999.0,52,-99.99,,,-99.99,,2013-01-02 02:42:00,
2013-01-01 21:53:00,22.0,8.0,29.56,NNW,345,1.0,-999.0,54,-99.99,,,-99.99,,2013-01-02 02:53:00,
2013-01-01 22:02:00,21.0,7.0,29.56,NNW,340,2.0,-999.0,55,-99.99,,,-99.99,,2013-01-02 03:02:00,
2013-01-01 22:12:00,21.0,7.0,29.56,NNW,340,2.0,-999.0,55,-99.99,,,-99.99,,2013-01-02 03:12:00,
2013-01-01 22:22:00,20.0,7.0,29.57,NNW,340,0.0,-999.0,57,-99.99,,,-99.99,,2013-01-02 03:22:00,
2013-01-01 22:32:00,19.0,7.0,29.57,NNW,340,0.0,-999.0,60,-99.99,,,-99.99,,2013-01-02 03:32:00,
2013-01-01 22:42:00,19.0,7.0,29.57,NNW,340,0.0,-999.0,60,-99.99,,,-99.99,,2013-01-02 03:42:00,
2013-01-01 22:53:00,18.0,7.0,29.58,NNW,340,0.0,-999.0,61,-99.99,,,-99.99,,2013-01-02 03:53:00,
2013-01-01 23:02:00,17.0,6.0,29.58,NNW,340,0.0,-999.0,62,-99.99,,,-99.99,,2013-01-02 04:02:00,
2013-01-01 23:12:00,17.0,6.0,29.58,NNW,340,0.0,-999.0,62,-99.99,,,-99.99,,2013-01-02 04:12:00,
2013-01-01 23:22:00,16.0,6.0,29.57,NNW,340,0.0,-999.0,64,-99.99,,,-99.99,,2013-01-02 04:22:00,
2013-01-01 23:32:00,16.0,7.0,29.58,NNW,340,0.0,-999.0,66,-99.99,,,-99.99,,2013-01-02 04:32:00,
2013-01-01 23:42:00,16.0,7.0,29.58,NNW,340,0.0,-999.0,66,-99.99,,,-99.99,,2013-01-02 04:42:00,
2013-01-01 23:53:00,15.0,6.0,29.59,NNW,340,0.0,-999.0,68,-99.99,,,-99.99,,2013-01-02 04:53:00,